星链-32044 (STARLINK-32044 )

导读

STARLINK-32044是美国SpaceX星链互联网卫星星座的一员,于北京时间2024年6月23日8时发射入轨。星链计划旨在构建全球卫星互联网,为全球范围内提供低延迟宽带网络服务,该卫星的入轨进一步扩充了星链星座的在轨卫星规模,提升了星座服务覆盖能力。

Basic Information
目录编号:
60092
目录名称:
STARLINK-32044
国际标识:
2024-117B
轨道中心:
EARTH
卫星名称:
星链-32044
卫星全名:
星链-32044 (STARLINK-32044 )
卫星状态:
在轨 (已飞行725 天)
发射日期:
2024-06-23 UTC
国别 :
美国 (US)
星等 :
--
Orbit Information
数据来源 国际轨道数据 AOE轨道数据
星历时间 2026-06-17T20:14:22+0800
13小时前
查看轨道信息
2026-06-12T08:00:00+0800
6天前
查看轨道信息
半长轴 6853.382km 6853.35km
偏心率 0.000143 0.0001558
轨道倾角 53.161° 53.162°
近地点辐角 121.090° 87.902°
升交点赤经 293.168° 318.763°
平近点角 239.024° 142.493°
近地点 474.264km 474.145km
远地点 476.226km 476.281km
周期 94.106分钟 94.105分钟
每日圈数 15.301903 15.30201
Detailed Information
固有亮度:
5
最大亮度:
1.5
卫星平台:
Starlink v2.0 mini
覆盖范围:
全球
运营商:
太空探索技术公司
运营商所在国:
美国
制造商(研发单位):
太空探索技术公司
制造商所在国:
美国
使用方式:
暂无
Satellite Introduction
星链(Starlink)计划是由太空探索技术公司(SpaceX)提出的一个巨型低轨卫星互联网星座项目,计划在2019年至2024年间在太空搭建由约1.2万颗卫星组成的“星链”网络,其中1584颗将部署在地球上空550千米处的近地轨道,并从2020年开始工作。该卫星仍在工作。
2D Orbit Map
3D Orbit Map
Orbit Altitude Analysis Chart
Orbit Inclination Analysis Chart
Orbit Comprehensive Analysis Chart
View Comprehensive Chart